Regional Weather Roundup
Issued by NWS

Home | Current Version | Previous Version | Graphics & Text | Print | Product List | Glossary Off
Versions: 1 2 3 4 5 6 7 8 9 10 11 12 13 14 15 16 17 18 19 20 21 22 23 24 25 26 27 28 29 30 31 32 33 34 35 36 37 38 39 40 41 42 43 44 45 46 47 48 49 50

000
ASUS43 KMPX 280410
RWRMN
WEATHER ROUNDUP FOR MINNESOTA
NATIONAL WEATHER SERVICE TWIN CITIES/CHANHASSEN MN
1100 PM CDT WED JUL 27 2016


NOTE: "FAIR" INDICATES FEW OR NO CLOUDS BELOW 12,000 FEET WITH NO
SIGNIFICANT WEATHER AND/OR OBSTRUCTIONS TO VISIBILITY. N/A MEANS
CURRENT SKY AND/OR WEATHER CONDITIONS ARE NOT AVAILABLE.

MNZ060>063-068>070-280500-
   Twin Cities Metro

CITY           SKY/WX    TMP DP  RH WIND       PRES   REMARKS
TWIN CITIES    CLOUDY    70  63  78 N12       29.98S
ST PAUL        CLOUDY    70  65  84 N10       29.98R
CRYSTAL        CLOUDY    68  62  81 N10       29.99S
BLAINE         LGT RAIN  68  66  94 NW10      30.00S
LAKEVILLE      PTCLDY    66  66 100 NW10      29.97S
EDEN PRAIRIE   CLOUDY    70  64  81 N12       29.97F
LAKEVILLE      PTCLDY    66  66 100 NW10      29.97S
SOUTH ST PAUL  CLOUDY    69  65  85 N7        29.97S
LAKE ELMO      CLOUDY    68  66  94 N5        30.00R
$$
MNZ001>005-007-008-013>017-022>024-027-028-280500-
   Northwest Minnesota

CITY           SKY/WX    TMP DP  RH WIND       PRES   REMARKS
BEMIDJI        PTCLDY    63  59  88 CALM      30.08R
HALLOCK        CLOUDY    64  57  77 N8        30.11R
ROSEAU         PTCLDY    61  55  82 N5        30.11R
WARROAD        CLEAR     66  59  77 N9        30.11R
THIEF RVR FALL CLOUDY    68  60  75 NE8       30.10R
CROOKSTON      CLEAR     66  61  82 N10       30.08S
FOSSTON        CLOUDY    64  61  88 CALM      30.08R
DETROIT LAKES  CLOUDY    68  63  83 CALM      30.07S
MOORHEAD       MOCLDY    66  61  82 N7        30.06S
PARK RAPIDS    MOCLDY    66  62  87 CALM      30.07R
MAHNOMEN       MOCLDY    65  63  92 CALM      30.07R
$$
MNZ006-009>011-018-025>026-280500-
   North Central Minnesota

CITY           SKY/WX    TMP DP  RH WIND       PRES   REMARKS
BAUDETTE       CLEAR     63  55  75 NE8       30.10R
FLAG ISLAND    CLEAR     64  54  68 NE13      30.11R
INTL FALLS     CLEAR     65  54  67 NE3       30.08R
WASKISH        PTCLDY    63  57  82 NE5       30.08R
BIG FORK       PTCLDY    61  57  88 CALM      30.07R
LONGVILLE      CLOUDY    61  61 100 CALM      30.07R
GRAND RAPIDS   CLEAR     61  61 100 CALM      30.08R FOG
CRANE LAKE     CLEAR     54  54 100 CALM      30.08R
ORR            CLEAR     61  54  77 CALM      30.04R
COOK           PTCLDY    61  57  88 CALM      30.06R
WALKER         CLOUDY    60  59  96 CALM      30.07R
$$
MNZ012-019>021-037-280500-
   Northeast Minnesota

CITY           SKY/WX    TMP DP  RH WIND       PRES   REMARKS
DULUTH         CLEAR     59  57  93 E9        30.04S
ELY            CLEAR     59  57  94 CALM      30.06S
HIBBING        FOG       56  56 100 CALM      30.06R VSB 3/4
EVELETH        CLEAR     60  59  97 CALM      30.06S FOG
DULUTH HARBOR  CLEAR     63  59  88 NE10      30.04S
TWO HARBORS    PTCLDY    61  55  82 N3        30.03S
SILVER BAY     CLOUDY    61  57  88 CALM      30.04R
GRAND MARAIS     N/A     58  56  93 NW3       30.04S
$$
MNZ029>031-032-039>041-046>048-054>057-064-280500-
   West Central Minnesota

CITY           SKY/WX    TMP DP  RH WIND       PRES   REMARKS
FERGUS FALLS   CLEAR     64  59  82 CALM      30.06S
WHEATON        CLOUDY    64  61  88 NW5       30.06S
MORRIS         CLEAR     63  59  88 NW5       30.03F
ALEXANDRIA     CLOUDY    68  62  81 NE7       30.06R
ELBOW LAKE     FAIR      65  60  81 N5        30.04F
WADENA         CLOUDY    64  63  94 NE3       30.06S
GLENWOOD       PTCLDY    66  64  94 N3        30.06R
APPLETON       CLEAR     66  59  77 CALM      30.03S
BENSON         CLEAR     64  57  77 N5        30.03S
ORTONVILLE     CLOUDY    66  57  72 CALM      30.04F
MADISON        CLEAR     68  59  73 N7        30.04S
WILLMAR        FAIR      68  64  88 N3        30.04S
$$
MNZ033>034-036-042>043-049>051-058-059-280500-
   Central Minnesota

CITY           SKY/WX    TMP DP  RH WIND       PRES   REMARKS
ST CLOUD       CLEAR     64  63  96 NE6       30.03S
SAUK CENTRE    MOCLDY    66  63  90 N3        30.05R
PAYNESVILLE    PTCLDY    65  65  99 CALM      30.04R
AITKIN         CLOUDY    63  57  82 CALM      30.06R
PINE RIVER     CLOUDY    63  63 100 CALM      30.10R
BRAINERD       CLOUDY    64  62  93 CALM      30.06R
STAPLES        CLOUDY    64  61  88 NE3       30.06S
LONG PRAIRIE   CLOUDY    64  63  94 N3        30.05S
LITTLE FALLS   CLEAR     64  59  82 CALM      30.05R
LITCHFIELD     CLEAR     70  66  88 CALM      30.04R
BUFFALO        MOCLDY    66  62  85 N9        30.02S
MAPLE LAKE     MOCLDY    67  65  91 N5        30.03R
HUTCHINSON     CLOUDY    68  65  91 N7        30.04R
$$
MNZ037-044-045-052-053-280500-
   East Central Minnesota

CITY           SKY/WX    TMP DP  RH WIND       PRES   REMARKS
PRINCETON      CLOUDY    64  61  88 N8        30.03F
MORA           CLOUDY    59  57  94 N3        30.06R
CAMBRIDGE      CLOUDY    66  59  77 NW5       30.02R
RUSH CITY      LGT RAIN  64  62  94 N6        30.02R
MOOSE LAKE     CLEAR     59  55  88 CALM      30.02R
HINCKLEY       CLOUDY    61  61 100 N3        30.03R
CLOQUET        CLEAR     57  55  94 CALM      30.05R
MCGREGOR       PTCLDY    59  55  88 CALM      30.06R
$$
MNZ071>073-080-081-089-090-097-098-280500-
   Southwest Minnesota

CITY           SKY/WX    TMP DP  RH WIND       PRES   REMARKS
MONTEVIDEO     CLEAR     66  61  82 N5        30.05S
GRANITE FALLS  PTCLDY    70  62  75 NW6       30.04S
CANBY          CLOUDY    68  60  75 NW6       30.05S
MARSHALL       CLEAR     67  61  81 N5        30.04S
REDWOOD FALLS  CLEAR     69  64  84 NW5       30.01R
OLIVIA         PTCLDY    70  64  83 NE3       30.02S
PIPESTONE      CLOUDY    70  63  78 N3        30.06S
WINDOM         CLEAR     68  64  88 NW5       30.03R
WORTHINGTON    CLOUDY    66  63  90 N7        30.04S
JACKSON        PTCLDY    68  63  83 NW5       30.03S
TRACY          CLEAR     67  65  90 NW6       30.04S
SLAYTON        CLOUDY    67  63  87 NW8       30.05F
$$
MNZ065>067-074>077-082>085-091>093-280500-
   South Central Minnesota

CITY           SKY/WX    TMP DP  RH WIND       PRES   REMARKS
MANKATO        PTCLDY    70  63  78 N9        30.00R
NEW ULM        CLEAR     70  64  83 N6        30.00S
ST JAMES       CLEAR     63  61  94 CALM      30.01S
FAIRMONT       CLEAR     68  64  88 NW6       30.00R
GLENCOE        CLEAR     67  65  94 N5        30.01R
FARIBAULT      CLEAR     66  66 100 NW3       29.98R
OWATONNA       CLEAR     68  64  88 NW6       29.98R
WASECA         PTCLDY    64  63  94 NW5       30.01R
ALBERT LEA     CLEAR     68  66  94 NW5       29.99R
$$
MNZ078>079-086>088-094>096-280500-
   Southeast Minnesota

CITY           SKY/WX    TMP DP  RH WIND       PRES   REMARKS
ROCHESTER      MOCLDY    67  67 100 NW5       29.98R
RED WING       CLOUDY    70  66  88 CALM      29.95R
STANTON        CLOUDY    70  64  83 N7        29.96S
DODGE CENTER   CLOUDY    68  66  94 N7        29.98S
WINONA         MOCLDY    72  68  88 N5        29.94R
AUSTIN         PTCLDY    68  64  88 CALM      29.98R
PRESTON        CLOUDY    70  67  91 NW5       29.97R
$$
ABBREVIATIONS USED IN REMARKS
   TC - TEMPERATURES IN CELSIUS
  WCI - WIND CHILL INDEX
   HX - HEAT INDEX
  VSB - VISIBILITY
$$




USA.gov is the U.S. government's official web portal to all federal, state and local government web resources and services.